period_start,C,m1,H,J0,J1,J2,J3,J4,J5,JA,JB,JC,JD,JJ,JK,JN,#
2013-11-04 00:00:50,0.05,1.20,0.00,19.91,21.63,24.50,5.74,30.83,1004.88,2065.98,3007.49,3049.94,3260.98,349.20,322.91,26.22,0000 0000 0000 0000 000000
2013-11-04 00:01:50,0.07,1.20,0.00,19.90,21.63,24.51,5.89,31.21,1004.89,2065.99,3007.22,3049.77,3260.98,349.73,323.69,26.23,0000 0000 0000 0000 000000
2013-11-04 00:02:51,0.07,1.20,0.00,19.88,21.62,24.51,5.88,30.92,1004.89,2065.98,3007.09,3049.50,3260.98,350.02,323.65,26.24,0000 0000 0000 0000 000000
2013-11-04 00:03:51,0.08,1.20,0.00,19.90,21.63,24.51,5.97,31.29,1004.89,2065.99,3007.03,3049.26,3260.94,350.67,324.22,26.24,0000 0000 0000 0000 000000
2013-11-04 00:04:51,0.07,1.20,0.00,19.92,21.62,24.52,5.94,31.04,1004.90,2065.99,3007.01,3049.16,3260.94,350.13,323.48,26.25,0000 0000 0000 0000 000000
2013-11-04 00:05:52,0.02,1.20,0.00,19.94,21.63,24.52,5.97,31.29,1004.90,2065.99,3007.00,3049.11,3260.92,349.90,323.09,26.25,0000 0000 0000 0000 000000
2013-11-04 00:06:52,0.01,1.20,0.00,19.94,21.62,24.51,5.97,31.21,1004.90,2065.99,3007.00,3049.08,3260.80,350.69,324.23,26.26,0000 0000 0000 0000 000000
2013-11-04 00:07:53,0.02,1.20,0.00,19.93,21.62,24.47,5.92,31.17,1004.90,2065.99,3007.00,3049.04,3260.67,349.12,322.78,26.27,0000 0000 0000 0000 000000
2013-11-04 00:08:53,0.02,1.20,0.00,19.91,21.62,24.47,6.04,31.33,1004.90,2065.99,3007.00,3049.01,3260.52,350.84,324.38,26.27,0000 0000 0000 0000 000000
2013-11-04 00:09:53,0.04,1.20,0.00,19.94,21.62,24.51,6.06,31.25,1004.90,2065.99,3006.98,3049.01,3260.23,349.42,323.04,26.28,0000 0000 0000 0000 000000
2013-11-04 00:10:54,0.03,1.20,0.00,19.90,21.62,24.54,5.85,31.04,1004.90,2065.99,3006.98,3049.00,3260.12,349.18,322.53,26.28,0000 0000 0000 0000 000000
2013-11-04 00:11:54,0.01,1.20,0.00,19.88,21.62,24.51,5.93,30.96,1004.90,2065.99,3006.82,3049.00,3260.08,349.69,323.35,26.29,0000 0000 0000 0000 000000
2013-11-04 00:12:55,0.03,1.20,0.00,19.88,21.62,24.52,6.03,31.25,1004.90,2065.99,3006.41,3049.00,3260.06,349.86,323.52,26.30,0000 0000 0000 0000 000000
2013-11-04 00:13:55,0.06,1.20,0.00,19.88,21.62,24.52,5.91,31.08,1004.90,2065.99,3006.19,3049.00,3260.04,349.87,323.52,26.30,0000 0000 0000 0000 000000
2013-11-04 00:14:55,0.03,1.20,0.00,19.88,21.62,24.52,6.14,31.46,1004.90,2065.99,3006.09,3049.00,3260.02,351.65,324.17,26.31,0000 0000 0000 0000 000000
2013-11-04 00:15:56,0.01,1.20,0.00,19.88,21.62,24.50,6.03,31.42,1004.90,2065.99,3006.05,3049.00,3260.00,349.76,323.41,26.31,0000 0000 0000 0000 000000
2013-11-04 00:16:56,0.00,1.20,0.00,19.89,21.62,24.51,5.87,31.08,1004.90,2065.99,3006.02,3049.00,3260.00,350.31,324.07,26.32,0000 0000 0000 0000 000000
2013-11-04 00:17:57,0.00,1.20,0.00,19.91,21.62,24.50,6.03,31.13,1004.90,2065.99,3006.00,3048.96,3260.00,350.53,323.82,26.32,0000 0000 0000 0000 000000
2013-11-04 00:18:57,0.01,1.20,0.00,19.93,21.62,24.48,5.88,31.25,1004.90,2065.99,3006.00,3048.83,3260.00,349.21,322.45,26.33,0000 0000 0000 0000 000000
2013-11-04 00:19:57,0.02,1.20,0.00,19.91,21.62,24.48,6.00,31.25,1004.90,2065.99,3005.99,3048.58,3260.00,350.46,323.93,26.34,0000 0000 0000 0000 000000
2013-11-04 00:20:58,0.07,1.20,0.00,19.88,21.62,24.49,5.90,30.79,1004.90,2065.99,3005.89,3048.42,3259.98,350.05,323.68,26.34,0000 0000 0000 0000 000000
2013-11-04 00:21:58,0.05,1.20,0.00,19.88,21.62,24.51,5.93,31.17,1004.90,2065.99,3005.63,3048.26,3259.98,348.61,322.36,26.35,0000 0000 0000 0000 000000
2013-11-04 00:22:58,0.09,1.20,0.00,19.88,21.62,24.52,5.94,31.58,1004.90,2065.99,3005.44,3048.19,3259.99,349.34,323.03,26.35,0000 0000 0000 0000 000000
2013-11-04 00:23:58,0.04,1.20,0.00,19.89,21.62,24.50,6.07,31.38,1004.90,2065.99,3005.18,3048.10,3259.97,350.50,324.10,26.36,0000 0000 0000 0000 000000
2013-11-04 00:24:59,0.05,1.20,0.00,19.89,21.62,24.50,5.97,31.29,1004.90,2065.99,3005.08,3048.06,3259.89,349.98,323.61,26.37,0000 0000 0000 0000 000000
2013-11-04 00:25:59,0.03,1.21,0.00,19.90,21.62,24.51,5.92,31.04,1004.90,2065.99,3005.03,3048.03,3259.71,350.59,324.61,26.37,0000 0000 0000 0000 000000
2013-11-04 00:27:00,0.04,1.21,0.00,19.92,21.62,24.50,5.96,30.92,1004.90,2065.99,3005.01,3048.00,3259.32,350.44,324.02,26.38,0000 0000 0000 0000 000000
2013-11-04 00:28:00,0.06,1.21,0.00,19.92,21.62,24.49,5.99,31.21,1004.90,2065.99,3005.00,3048.00,3259.14,350.49,324.06,26.38,0000 0000 0000 0000 000000
2013-11-04 00:29:00,0.02,1.21,0.00,19.90,21.62,24.51,5.77,30.83,1004.90,2065.99,3004.97,3048.00,3259.07,349.10,323.12,26.39,0000 0000 0000 0000 000000
2013-11-04 00:30:01,0.01,1.21,0.00,19.91,21.62,24.52,6.03,30.88,1004.90,2065.99,3004.93,3047.99,3259.04,350.43,324.02,26.39,0000 0000 0000 0000 000000
2013-11-04 00:31:01,0.01,1.21,0.00,19.89,21.62,24.50,6.02,31.33,1004.90,2065.99,3004.83,3047.99,3259.01,349.71,323.87,26.40,0000 0000 0000 0000 000000
2013-11-04 00:32:01,0.01,1.21,0.00,19.89,21.62,24.50,6.04,31.38,1004.90,2065.99,3004.61,3047.98,3259.00,349.68,323.46,26.41,0000 0000 0000 0000 000000
2013-11-04 00:33:02,0.04,1.21,0.00,19.91,21.62,24.53,5.92,31.25,1004.90,2065.99,3004.30,3047.98,3259.00,350.11,324.05,26.41,0000 0000 0000 0000 000000
2013-11-04 00:34:02,0.04,1.21,0.00,19.91,21.62,24.48,6.00,31.08,1004.90,2065.99,3004.13,3047.94,3259.00,350.32,324.13,26.42,0000 0000 0000 0000 000000
2013-11-04 00:35:02,0.04,1.21,0.00,19.92,21.62,24.48,5.92,31.08,1004.90,2065.99,3004.06,3047.93,3259.00,350.02,323.92,26.42,0000 0000 0000 0000 000000
2013-11-04 00:36:02,0.00,1.21,0.00,19.92,21.62,24.48,5.93,31.21,1004.90,2065.99,3004.03,3047.84,3259.00,350.03,323.62,26.43,0000 0000 0000 0000 000000
2013-11-04 00:37:03,0.02,1.21,0.00,19.93,21.62,24.49,5.99,31.04,1004.90,2065.99,3004.01,3047.71,3258.99,350.75,324.27,26.44,0000 0000 0000 0000 000000
2013-11-04 00:38:03,0.04,1.21,0.00,19.93,21.62,24.50,5.95,31.04,1004.90,2065.99,3004.00,3047.51,3258.97,349.13,322.75,26.44,0000 0000 0000 0000 000000
2013-11-04 00:39:04,0.05,1.21,0.00,19.92,21.62,24.46,5.86,31.00,1004.90,2065.99,3004.00,3047.27,3258.91,349.65,323.27,26.45,0000 0000 0000 0000 000000
2013-11-04 00:40:04,0.06,1.21,0.00,19.90,21.62,24.48,5.84,30.92,1004.90,2065.99,3003.99,3047.16,3258.73,349.56,323.00,26.45,0000 0000 0000 0000 000000
2013-11-04 00:41:04,0.06,1.21,0.00,19.89,21.62,24.49,6.05,31.04,1004.90,2065.99,3003.98,3047.09,3258.56,349.77,323.22,26.46,0000 0000 0000 0000 000000
2013-11-04 00:42:05,0.04,1.21,0.00,19.91,21.62,24.50,5.78,31.38,1004.90,2065.99,3003.93,3047.06,3258.40,349.29,323.24,26.47,0000 0000 0000 0000 000000
2013-11-04 00:43:05,0.04,1.21,0.00,19.90,21.62,24.49,5.98,31.50,1004.90,2065.99,3003.64,3047.02,3258.18,350.65,324.22,26.47,0000 0000 0000 0000 000000
2013-11-04 00:44:05,0.08,1.21,0.00,19.91,21.62,24.48,5.93,31.42,1004.90,2065.99,3003.31,3047.00,3258.07,350.66,324.33,26.48,0000 0000 0000 0000 000000
2013-11-04 00:45:06,0.05,1.21,0.00,19.91,21.62,24.51,6.08,31.67,1004.90,2065.99,3003.13,3047.00,3258.04,350.19,323.59,26.48,0000 0000 0000 0000 000000
2013-11-04 00:46:06,0.03,1.21,0.00,19.89,21.62,24.51,6.10,31.13,1004.90,2065.99,3003.05,3046.99,3258.01,349.94,323.57,26.49,0000 0000 0000 0000 000000
2013-11-04 00:47:06,0.01,1.21,0.00,19.90,21.62,24.51,5.85,30.92,1004.90,2065.99,3003.02,3046.99,3258.01,349.06,322.74,26.49,0000 0000 0000 0000 000000
2013-11-04 00:48:06,0.00,1.21,0.00,19.91,21.62,24.52,6.14,31.29,1004.90,2065.99,3003.00,3046.98,3258.00,351.05,324.34,26.50,0000 0000 0000 0000 000000
2013-11-04 00:49:07,0.00,1.21,0.00,19.91,21.62,24.51,5.90,31.17,1004.90,2065.99,3002.98,3046.97,3258.00,349.76,323.39,26.51,0000 0000 0000 0000 000000
2013-11-04 00:50:07,0.00,1.21,0.00,19.91,21.62,24.51,6.01,31.25,1004.90,2065.99,3002.94,3046.90,3258.00,349.53,323.18,26.51,0000 0000 0000 0000 000000
2013-11-04 00:51:08,0.02,1.21,0.00,19.90,21.62,24.52,5.97,31.17,1004.90,2066.00,3002.91,3046.82,3258.00,350.09,323.70,26.52,0000 0000 0000 0000 000000
2013-11-04 00:52:08,0.03,1.21,0.00,19.90,21.62,24.52,5.92,30.88,1004.90,2066.02,3002.82,3046.71,3258.00,349.71,323.35,26.52,0000 0000 0000 0000 000000
2013-11-04 00:53:09,0.05,1.21,0.00,19.89,21.62,24.51,5.97,31.29,1004.90,2066.03,3002.46,3046.43,3258.00,350.54,324.40,26.53,0000 0000 0000 0000 000000
2013-11-04 00:54:09,0.14,1.21,0.00,19.87,21.62,24.48,5.93,31.13,1004.90,2066.01,3002.24,3046.23,3258.00,350.12,323.75,26.54,0000 0000 0000 0000 000000
2013-11-04 00:55:09,0.07,1.21,0.00,19.89,21.62,24.52,6.06,31.25,1004.90,2066.01,3002.12,3046.14,3257.98,350.82,324.71,26.54,0000 0000 0000 0000 000000
2013-11-04 00:56:10,0.04,1.21,0.00,19.90,21.62,24.54,6.00,31.46,1004.90,2066.01,3002.05,3046.06,3257.91,350.61,324.19,26.55,0000 0000 0000 0000 000000
2013-11-04 00:57:10,0.02,1.21,0.00,19.90,21.62,24.50,6.03,31.08,1004.90,2066.01,3002.02,3046.03,3257.78,350.50,324.08,26.55,0000 0000 0000 0000 000000
2013-11-04 00:58:10,0.03,1.21,0.00,19.89,21.62,24.48,5.98,31.25,1004.90,2066.00,3002.00,3046.01,3257.67,350.44,324.05,26.56,0000 0000 0000 0000 000000
2013-11-04 00:59:10,0.01,1.21,0.00,19.90,21.62,24.48,6.08,31.46,1004.90,2066.00,3002.00,3046.02,3257.38,349.92,323.74,26.57,0000 0000 0000 0000 000000
2013-11-04 01:00:11,0.03,1.21,0.00,19.90,21.62,24.50,5.95,31.13,1004.90,2066.02,3002.00,3046.00,3257.20,350.09,323.35,26.57,0000 0000 0000 0000 000000
2013-11-04 01:01:11,0.04,1.21,0.00,19.89,21.62,24.49,5.97,31.08,1004.90,2066.04,3002.00,3046.00,3257.09,350.36,323.96,26.58,0000 0000 0000 0000 000000
2013-11-04 01:02:11,0.02,1.21,0.00,19.90,21.62,24.48,6.08,31.17,1004.90,2066.02,3002.00,3046.00,3257.04,350.88,324.46,26.58,0000 0000 0000 0000 000000
2013-11-04 01:03:11,-0.00,1.21,0.00,19.91,21.62,24.46,5.86,31.04,1004.90,2066.01,3002.00,3046.00,3257.01,349.35,323.01,26.59,0000 0000 0000 0000 000000
2013-11-04 01:04:12,-0.00,1.21,0.00,19.90,21.62,24.47,5.91,31.17,1004.90,2066.03,3001.99,3046.00,3257.00,350.77,324.44,26.59,0000 0000 0000 0000 000000
2013-11-04 01:05:12,0.02,1.21,0.00,19.91,21.62,24.48,5.99,31.29,1004.90,2066.05,3001.99,3046.00,3257.00,350.17,323.94,26.60,0000 0000 0000 0000 000000
2013-11-04 01:06:12,0.00,1.21,0.00,19.91,21.62,24.50,5.98,31.21,1004.90,2066.04,3001.81,3045.99,3257.00,350.10,323.61,26.61,0000 0000 0000 0000 000000
2013-11-04 01:07:12,0.02,1.21,0.00,19.88,21.62,24.48,6.05,31.33,1004.90,2066.03,3001.47,3045.98,3257.00,350.34,323.95,26.61,0000 0000 0000 0000 000000
2013-11-04 01:08:13,0.04,1.21,0.00,19.90,21.62,24.51,5.99,31.08,1004.90,2066.01,3001.25,3045.94,3256.99,349.84,323.47,26.62,0000 0000 0000 0000 000000
2013-11-04 01:09:13,0.03,1.21,0.00,19.91,21.62,24.49,5.94,31.63,1004.90,2066.01,3001.09,3045.82,3256.96,350.09,323.69,26.62,0000 0000 0000 0000 000000
2013-11-04 01:10:13,0.05,1.21,0.00,19.91,21.62,24.48,6.04,31.42,1004.90,2066.01,3001.03,3045.53,3256.91,350.34,323.92,26.63,0000 0000 0000 0000 000000
2013-11-04 01:11:14,0.07,1.21,0.00,19.92,21.62,24.47,5.94,30.92,1004.90,2066.00,3001.01,3045.36,3256.79,349.01,322.69,26.64,0000 0000 0000 0000 000000
2013-11-04 01:12:14,0.06,1.22,0.00,19.94,21.62,24.47,5.95,31.29,1004.92,2066.00,3001.00,3045.20,3256.51,349.63,323.90,26.64,0000 0000 0000 0000 000000
2013-11-04 01:13:14,0.08,1.22,0.00,19.92,21.62,24.49,5.96,30.96,1004.91,2066.01,3001.00,3045.10,3256.30,350.76,324.30,26.65,0000 0000 0000 0000 000000
2013-11-04 01:14:15,0.05,1.22,0.00,19.92,21.62,24.49,5.95,30.96,1004.90,2066.00,3000.99,3045.03,3256.13,349.72,323.50,26.65,0000 0000 0000 0000 000000
2013-11-04 01:15:15,0.03,1.22,0.00,19.94,21.62,24.48,6.08,31.54,1004.91,2066.00,3000.98,3045.02,3256.07,350.40,323.95,26.66,0000 0000 0000 0000 000000
2013-11-04 01:16:15,0.01,1.22,0.00,19.96,21.62,24.47,5.98,31.42,1004.90,2066.02,3000.90,3045.00,3256.03,350.90,324.34,26.66,0000 0000 0000 0000 000000
2013-11-04 01:17:15,0.03,1.22,0.00,19.94,21.62,24.49,5.92,30.96,1004.90,2066.02,3000.55,3045.00,3256.02,350.41,323.66,26.67,0000 0000 0000 0000 000000
2013-11-04 01:18:16,0.05,1.22,0.00,19.93,21.62,24.49,6.02,30.96,1004.90,2066.01,3000.32,3045.00,3256.01,350.50,324.12,26.68,0000 0000 0000 0000 000000
2013-11-04 01:19:16,0.02,1.22,0.00,19.93,21.62,24.45,5.92,31.21,1004.90,2066.01,3000.15,3045.00,3256.00,349.65,323.65,26.68,0000 0000 0000 0000 000000
2013-11-04 01:20:16,0.02,1.22,0.00,19.92,21.62,24.49,6.02,31.29,1004.90,2066.02,3000.05,3045.00,3256.00,350.34,323.64,26.69,0000 0000 0000 0000 000000
2013-11-04 01:21:17,0.02,1.22,0.00,19.91,21.62,24.48,6.05,30.88,1004.90,2066.01,3000.03,3045.00,3256.00,349.94,323.66,26.69,0000 0000 0000 0000 000000
2013-11-04 01:22:17,-0.00,1.22,0.00,19.94,21.62,24.48,6.05,31.29,1004.90,2066.02,3000.01,3045.00,3255.98,349.91,323.98,26.70,0000 0000 0000 0000 000000
2013-11-04 01:23:18,0.01,1.22,0.00,19.91,21.62,24.46,5.89,31.00,1004.90,2066.01,3000.01,3045.00,3255.97,349.65,323.27,26.71,0000 0000 0000 0000 000000
2013-11-04 01:24:18,0.00,1.22,0.00,19.90,21.62,24.48,5.89,31.21,1004.90,2066.01,3000.00,3044.99,3255.97,348.93,322.83,26.71,0000 0000 0000 0000 000000
2013-11-04 01:25:18,0.00,1.22,0.00,19.92,21.62,24.47,5.98,31.21,1004.90,2066.02,2999.99,3044.93,3255.94,349.16,322.58,26.72,0000 0000 0000 0000 000000
2013-11-04 01:26:19,0.02,1.22,0.00,19.93,21.62,24.48,5.91,31.29,1004.90,2066.03,2999.98,3044.90,3255.80,349.69,323.31,26.72,0000 0000 0000 0000 000000
2013-11-04 01:27:19,0.03,1.22,0.00,19.92,21.62,24.44,5.92,31.25,1004.90,2066.03,2999.98,3044.81,3255.71,349.03,323.03,26.73,0000 0000 0000 0000 000000
2013-11-04 01:28:19,0.03,1.22,0.00,19.94,21.62,24.46,5.82,30.83,1004.90,2066.04,2999.96,3044.82,3255.70,349.43,322.90,26.74,0000 0000 0000 0000 000000
2013-11-04 01:29:19,0.01,1.22,0.00,19.93,21.62,24.49,5.87,31.17,1004.90,2066.03,2999.86,3044.62,3255.55,349.24,322.88,26.74,0000 0000 0000 0000 000000
2013-11-04 01:30:20,0.06,1.22,0.00,19.93,21.62,24.53,5.94,31.25,1004.90,2066.01,2999.57,3044.30,3255.31,349.68,323.03,26.75,0000 0000 0000 0000 000000
2013-11-04 01:31:20,0.15,1.22,0.00,19.93,21.62,24.51,5.86,31.00,1004.90,2066.03,2999.25,3044.16,3255.12,349.19,322.86,26.75,0000 0000 0000 0000 000000
2013-11-04 01:32:20,0.12,1.22,0.00,19.93,21.62,24.53,6.09,31.08,1004.90,2066.05,2999.11,3044.08,3255.07,350.45,324.01,26.76,0000 0000 0000 0000 000000
2013-11-04 01:33:21,0.06,1.22,0.00,19.92,21.62,24.51,5.86,30.75,1004.90,2066.04,2999.04,3044.03,3255.03,349.56,323.34,26.76,0000 0000 0000 0000 000000
2013-11-04 01:34:21,0.00,1.22,0.00,19.92,21.62,24.48,6.08,31.29,1004.90,2066.03,2999.01,3044.02,3255.02,350.16,324.17,26.77,0000 0000 0000 0000 000000
2013-11-04 01:35:21,0.01,1.22,0.00,19.92,21.62,24.48,5.89,30.88,1004.90,2066.02,2999.00,3044.01,3255.00,349.47,322.71,26.78,0000 0000 0000 0000 000000
2013-11-04 01:36:22,-0.00,1.22,0.00,19.93,21.62,24.48,5.98,31.42,1004.90,2066.02,2999.00,3044.00,3255.00,350.21,323.64,26.78,0000 0000 0000 0000 000000
2013-11-04 01:37:22,0.01,1.22,0.00,19.95,21.62,24.48,5.90,31.50,1004.91,2066.04,2999.00,3044.00,3255.00,350.50,323.84,26.79,0000 0000 0000 0000 000000
2013-11-04 01:38:22,0.03,1.22,0.00,19.93,21.62,24.46,6.00,31.21,1004.90,2066.04,2998.99,3044.00,3255.00,349.53,323.15,26.79,0000 0000 0000 0000 000000
2013-11-04 01:39:23,-0.00,1.22,0.00,19.92,21.62,24.49,5.87,30.83,1004.91,2066.03,2998.97,3043.99,3255.00,350.42,323.98,26.80,0000 0000 0000 0000 000000
2013-11-04 01:40:23,0.01,1.22,0.00,19.92,21.62,24.50,5.88,31.04,1004.91,2066.04,2998.84,3043.98,3255.00,349.58,323.21,26.81,0000 0000 0000 0000 000000
2013-11-04 01:41:23,0.02,1.22,0.00,19.93,21.62,24.50,5.92,31.21,1004.90,2066.02,2998.52,3043.99,3255.00,349.42,323.05,26.81,0000 0000 0000 0000 000000
2013-11-04 01:42:24,0.03,1.22,0.00,19.95,21.62,24.48,5.91,31.04,1004.92,2066.01,2998.24,3043.98,3254.93,350.35,323.90,26.82,0000 0000 0000 0000 000000
2013-11-04 01:43:24,0.06,1.22,0.00,19.96,21.62,24.47,6.09,31.33,1004.92,2066.04,2998.10,3043.95,3254.78,351.18,324.65,26.82,0000 0000 0000 0000 000000
2013-11-04 01:44:24,0.05,1.22,0.00,19.94,21.62,24.45,5.94,31.08,1004.92,2066.03,2998.05,3043.94,3254.55,349.74,323.07,26.83,0000 0000 0000 0000 000000
2013-11-04 01:45:24,0.07,1.22,0.00,19.94,21.62,24.48,6.04,31.21,1004.91,2066.07,2998.02,3043.70,3254.31,350.26,323.82,26.83,0000 0000 0000 0000 000000
2013-11-04 01:46:25,0.09,1.22,0.00,19.94,21.62,24.49,5.78,30.92,1004.91,2066.05,2998.00,3043.44,3254.14,349.69,323.29,26.84,0000 0000 0000 0000 000000
2013-11-04 01:47:25,0.08,1.22,0.00,19.95,21.62,24.47,6.06,31.29,1004.91,2066.05,2998.00,3043.22,3254.08,350.42,323.85,26.85,0000 0000 0000 0000 000000
2013-11-04 01:48:25,0.05,1.22,0.00,19.96,21.62,24.47,6.02,31.29,1004.91,2066.03,2997.98,3043.11,3254.03,350.65,324.16,26.85,0000 0000 0000 0000 000000
2013-11-04 01:49:26,0.01,1.22,0.00,19.95,21.62,24.47,5.83,30.83,1004.92,2066.02,2997.85,3043.05,3254.01,349.00,323.02,26.86,0000 0000 0000 0000 000000
2013-11-04 01:50:26,0.03,1.22,0.00,19.95,21.62,24.49,5.97,30.96,1004.93,2066.02,2997.55,3043.02,3254.00,350.23,323.70,26.86,0000 0000 0000 0000 000000
2013-11-04 01:51:26,0.05,1.22,0.00,19.93,21.62,24.50,5.94,30.88,1004.92,2066.01,2997.33,3043.00,3254.00,349.74,323.34,26.87,0000 0000 0000 0000 000000
2013-11-04 01:52:27,0.03,1.22,0.00,19.93,21.62,24.51,5.92,31.21,1004.92,2066.02,2997.15,3043.00,3254.00,350.63,323.85,26.88,0000 0000 0000 0000 000000
2013-11-04 01:53:27,0.02,1.22,0.00,19.94,21.62,24.50,5.97,31.54,1004.96,2066.03,2997.05,3043.00,3254.00,349.47,322.75,26.88,0000 0000 0000 0000 000000
2013-11-04 01:54:27,0.02,1.22,0.00,19.91,21.62,24.48,5.98,31.08,1004.96,2066.02,2997.02,3042.99,3253.97,349.21,322.54,26.89,0000 0000 0000 0000 000000
2013-11-04 01:55:27,0.01,1.22,0.00,19.93,21.62,24.47,5.99,31.25,1004.99,2066.01,2997.00,3042.96,3253.87,350.02,323.63,26.89,0000 0000 0000 0000 000000
2013-11-04 01:56:28,0.02,1.23,0.00,19.95,21.62,24.47,6.02,31.08,1004.94,2066.01,2996.96,3042.92,3253.69,350.26,323.82,26.90,0000 0000 0000 0000 000000
2013-11-04 01:57:28,0.05,1.23,0.00,19.95,21.62,24.48,5.90,31.17,1004.96,2066.00,2996.85,3042.78,3253.43,350.09,323.67,26.91,0000 0000 0000 0000 000000
2013-11-04 01:58:28,0.07,1.23,0.00,19.94,21.63,24.50,6.00,31.17,1004.96,2066.02,2996.73,3042.61,3253.26,349.76,323.78,26.91,0000 0000 0000 0000 000000
2013-11-04 01:59:28,0.09,1.23,0.00,19.95,21.63,24.47,5.96,31.13,1004.94,2066.01,2996.67,3042.44,3253.10,349.75,323.34,26.92,0000 0000 0000 0000 000000
2013-11-04 02:00:29,0.06,1.23,0.00,19.97,21.63,24.50,6.03,31.42,1004.97,2066.03,2996.76,3042.35,3253.04,350.16,323.72,26.92,0000 0000 0000 0000 000000
2013-11-04 02:01:29,0.02,1.23,0.00,19.94,21.63,24.50,5.89,31.21,1004.97,2066.02,2996.58,3042.20,3253.01,349.12,322.35,26.93,0000 0000 0000 0000 000000
2013-11-04 02:02:29,0.07,1.23,0.00,19.96,21.63,24.50,6.04,31.29,1005.03,2066.03,2996.26,3042.09,3253.00,350.67,324.20,26.93,0000 0000 0000 0000 000000
2013-11-04 02:03:30,0.07,1.23,0.00,19.98,21.63,24.48,5.88,31.08,1005.07,2066.03,2996.11,3042.05,3253.00,349.38,323.01,26.94,0000 0000 0000 0000 000000
2013-11-04 02:04:30,0.02,1.23,0.00,19.98,21.64,24.45,6.06,31.08,1005.09,2066.03,2996.04,3042.03,3253.00,350.18,323.74,26.95,0000 0000 0000 0000 000000
2013-11-04 02:05:30,0.02,1.23,0.00,19.97,21.64,24.45,5.91,31.63,1005.11,2066.03,2996.01,3042.01,3253.00,349.18,322.10,26.95,0000 0000 0000 0000 000000
2013-11-04 02:06:31,0.00,1.23,0.00,19.97,21.64,24.46,5.83,31.04,1005.11,2066.02,2995.99,3042.00,3252.98,349.32,322.98,26.96,0000 0000 0000 0000 000000
2013-11-04 02:07:31,0.00,1.23,0.00,19.96,21.64,24.48,6.02,31.29,1005.11,2066.02,2995.97,3042.00,3252.97,348.97,322.80,26.96,0000 0000 0000 0000 000000
2013-11-04 02:08:31,0.01,1.23,0.00,19.96,21.64,24.49,5.97,31.38,1005.09,2066.02,2995.86,3041.98,3252.87,349.54,323.44,26.97,0000 0000 0000 0000 000000
2013-11-04 02:09:31,0.04,1.23,0.00,19.98,21.64,24.48,6.00,31.00,1005.13,2066.03,2995.60,3041.98,3252.75,349.35,323.54,26.98,0000 0000 0000 0000 000000
2013-11-04 02:10:31,0.06,1.23,0.00,20.00,21.64,24.47,5.94,31.08,1005.15,2066.01,2995.35,3041.98,3252.60,350.19,323.77,26.98,0000 0000 0000 0000 000000
2013-11-04 02:11:32,0.04,1.23,0.00,19.98,21.64,24.47,6.02,31.38,1005.12,2066.02,2995.19,3041.95,3252.43,350.94,324.26,26.99,0000 0000 0000 0000 000000
2013-11-04 02:12:32,0.06,1.23,0.00,19.98,21.64,24.46,5.80,30.96,1005.08,2066.01,2995.07,3041.85,3252.27,349.86,322.98,26.99,0000 0000 0000 0000 000000
2013-11-04 02:13:32,0.06,1.23,0.00,19.97,21.64,24.47,5.65,30.71,1005.09,2066.02,2995.02,3041.64,3252.17,349.86,323.48,27.00,0000 0000 0000 0000 000000
2013-11-04 02:14:33,0.07,1.23,0.00,19.96,21.64,24.46,5.98,31.21,1005.08,2066.00,2995.00,3041.32,3252.08,349.78,323.40,27.00,0000 0000 0000 0000 000000
2013-11-04 02:15:33,0.07,1.23,0.00,19.98,21.64,24.43,6.03,31.04,1005.07,2066.00,2994.99,3041.14,3252.03,351.06,324.56,27.01,0000 0000 0000 0000 000000
2013-11-04 02:16:33,0.05,1.23,0.00,20.00,21.64,24.46,5.95,30.96,1004.99,2066.01,2994.76,3041.08,3252.01,350.87,324.34,27.02,0000 0000 0000 0000 000000
2013-11-04 02:17:34,0.06,1.23,0.00,19.97,21.64,24.48,6.05,31.33,1004.97,2066.04,2994.37,3041.03,3252.00,350.33,323.86,27.02,0000 0000 0000 0000 000000
2013-11-04 02:18:34,0.08,1.23,0.00,19.97,21.64,24.47,6.18,31.42,1005.01,2066.04,2994.15,3041.00,3251.99,350.12,323.98,27.03,0000 0000 0000 0000 000000
2013-11-04 02:19:34,0.04,1.23,0.00,19.97,21.64,24.48,5.98,31.04,1005.03,2066.04,2994.07,3041.00,3251.99,350.29,323.66,27.03,0000 0000 0000 0000 000000
2013-11-04 02:20:35,0.00,1.23,0.00,19.96,21.64,24.48,5.92,31.25,1005.00,2066.05,2994.02,3041.00,3251.97,350.08,323.66,27.04,0000 0000 0000 0000 000000
2013-11-04 02:21:35,0.01,1.23,0.00,19.98,21.64,24.51,5.80,31.29,1005.00,2066.05,2994.00,3041.00,3251.96,348.59,322.05,27.05,0000 0000 0000 0000 000000
2013-11-04 02:22:35,-0.00,1.23,0.00,19.96,21.64,24.48,6.11,31.46,1005.07,2066.03,2993.99,3040.99,3251.95,351.17,325.13,27.05,0000 0000 0000 0000 000000
2013-11-04 02:23:35,0.02,1.23,0.00,19.96,21.64,24.47,6.05,31.42,1005.05,2066.04,2993.83,3040.95,3251.90,349.68,323.46,27.06,0000 0000 0000 0000 000000
2013-11-04 02:24:36,0.06,1.23,0.00,19.96,21.64,24.50,5.98,31.21,1005.11,2066.02,2993.42,3040.76,3251.74,349.94,323.51,27.06,0000 0000 0000 0000 000000
2013-11-04 02:25:36,0.12,1.23,0.00,19.98,21.65,24.53,6.02,31.13,1005.18,2066.05,2993.19,3040.58,3251.54,349.92,323.55,27.07,0000 0000 0000 0000 000000
2013-11-04 02:26:36,0.12,1.23,0.00,19.98,21.65,24.51,5.83,31.46,1005.14,2066.05,2993.07,3040.31,3251.31,350.62,323.94,27.08,0000 0000 0000 0000 000000
2013-11-04 02:27:36,0.10,1.23,0.00,19.97,21.65,24.48,5.93,31.58,1005.09,2066.03,2993.03,3040.14,3251.13,349.66,323.58,27.08,0000 0000 0000 0000 000000
2013-11-04 02:28:37,0.07,1.24,0.00,19.97,21.65,24.52,5.89,31.38,1005.07,2066.05,2993.00,3040.07,3251.05,349.90,323.53,27.09,0000 0000 0000 0000 000000
2013-11-04 02:29:37,0.03,1.24,0.00,19.95,21.65,24.50,6.02,31.58,1004.98,2066.06,2993.00,3040.03,3251.01,350.08,323.87,27.09,0000 0000 0000 0000 000000
2013-11-04 02:30:37,0.02,1.24,0.00,19.95,21.65,24.50,5.90,31.79,1004.99,2066.06,2992.98,3040.01,3251.00,349.80,323.50,27.10,0000 0000 0000 0000 000000
2013-11-04 02:31:37,0.00,1.24,0.00,19.96,21.65,24.50,5.98,31.79,1004.99,2066.07,2992.95,3040.00,3250.99,349.09,322.75,27.10,0000 0000 0000 0000 000000
2013-11-04 02:32:38,0.02,1.24,0.00,19.94,21.65,24.51,6.03,31.54,1004.97,2066.08,2992.76,3040.00,3250.99,349.74,323.36,27.11,0000 0000 0000 0000 000000
2013-11-04 02:33:38,0.03,1.24,0.00,19.95,21.65,24.48,5.97,31.08,1004.96,2066.15,2992.62,3040.00,3250.98,350.54,324.08,27.12,0000 0000 0000 0000 000000
2013-11-04 02:34:38,0.07,1.24,0.00,19.97,21.65,24.47,5.97,31.33,1004.99,2066.14,2992.37,3040.00,3250.99,350.15,323.72,27.12,0000 0000 0000 0000 000000
2013-11-04 02:35:38,0.04,1.24,0.00,19.98,21.65,24.50,6.04,31.46,1005.05,2066.13,2992.15,3040.00,3250.89,349.35,322.98,27.13,0000 0000 0000 0000 000000
2013-11-04 02:36:39,0.03,1.24,0.00,19.98,21.65,24.45,5.95,31.50,1005.02,2066.09,2992.05,3039.97,3250.58,350.09,323.65,27.13,0000 0000 0000 0000 000000